Regional Weather Roundup
Issued by NWS Upton, NY

Current Version | Previous Version | Text Only | Print | Product List | Glossary On
Versions: 1 2 3 4 5 6 7 8 9 10 11 12 13 14 15 16 17 18 19 20 21 22 23 24 25 26 27 28 29 30 31 32 33 34 35 36 37 38 39 40 41 42 43 44 45 46 47 48 49
000
ASUS41 KOKX 031208
RWROKX

REGIONAL WEATHER ROUNDUP
NATIONAL WEATHER SERVICE NEW YORK NY
800 AM EDT SUN MAY 03 2015

NOTE: "FAIR" INDICATES FEW OR NO CLOUDS BELOW 12,000 FEET WITH NO
SIGNIFICANT WEATHER AND/OR OBSTRUCTIONS TO VISIBILITY.

NYZ071-072-176-178-NJZ106-104-031300-
NEW YORK CITY METRO AREA


CITY           SKY/WX    TMP DP  RH WIND       PRES   REMARKS
CENTRAL PARK   SUNNY     54  39  57 CALM      30.11R
LAGUARDIA APRT MOSUNNY   54  38  54 SW6       30.09R
KENNEDY INTL   MOSUNNY   54  41  61 SW8       30.10R
NEWARK/LIBERTY MOSUNNY   53  41  63 SW3       30.09R
BRNX BOT. GARD   N/A     55  37  50 SW8       30.11R
TETERBORO      SUNNY     52  38  58 VRB3      30.08R
$$

NYZ177-179-078>081-031300-
LONG ISLAND NEW YORK

CITY           SKY/WX    TMP DP  RH WIND       PRES   REMARKS
FARMINGDALE    SUNNY     52  43  71 SW7       30.09R
ISLIP          MOSUNNY   52  45  77 SW6       30.08R
SHIRLEY        SUNNY     53  45  74 SW5       30.10R
WESTHAMPTON    SUNNY     52  43  71 SW5       30.10R
MONTAUK POINT    N/A     52  42  69 SW3       30.10R
$$

NYZ052-065-067-031300-
HUDSON VALLEY

CITY           SKY/WX    TMP DP  RH WIND       PRES   REMARKS
WHITE PLAINS   SUNNY     52  38  58 W5        30.07R
NEWBURGH       SUNNY     52  46  82 CALM      30.08R
MONTGOMERY     SUNNY     52  45  77 S5        30.07R
POUGHKEEPSIE   SUNNY     52  41  66 CALM      30.08R
ALBANY         MOSUNNY   55  42  61 S7        30.07R
$$

NJZ001-105-106-008-010-013-015-019>022-104-031300-
NEW JERSEY

CITY           SKY/WX    TMP DP  RH WIND       PRES   REMARKS
NEWARK/LIBERTY MOSUNNY   53  41  63 SW3       30.09R
TETERBORO      SUNNY     52  38  58 VRB3      30.08R
CALDWELL       SUNNY     48  41  76 CALM      30.09R
MORRISTOWN     MOSUNNY   48  43  81 CALM      30.09R
SOMERVILLE     MOSUNNY   49  41  74 CALM      30.07R
SUSSEX         SUNNY     50  44  80 CALM      30.10R
ANDOVER          N/A     50  45  83 CALM      30.09R
TRENTON        SUNNY     51  41  68 CALM      30.08R
MILLVILLE      CLOUDY    50  45  83 CALM      30.09R
ATLANTIC CITY  PTSUNNY   55  44  66 S5        30.09R
WRIGHTSTOWN    SUNNY     53  43  69 SW3       30.07R
TOMS RIVER     SUNNY     50  41  71 CALM      30.08S
BELMAR         SUNNY     52  37  58 SW6       30.09S
$$

PAZ047>061-062-071-031300-
EASTERN PENNSYLVANIA

CITY           SKY/WX    TMP DP  RH WIND       PRES   REMARKS
PHILADELPHIA   PTSUNNY   54  43  66 CALM      30.10R
ALLENTOWN      SUNNY     52  45  77 CALM      30.09R
SCRANTON       SUNNY     51  34  52 E3        30.10R
$$

CTZ002-004>006-009-010-012-RIZ004-006-007-MAZ004-011-015-031300-
SOUTHERN NEW ENGLAND
 IN CT

CITY           SKY/WX    TMP DP  RH WIND       PRES   REMARKS
BRADLEY INTL   MOSUNNY   52  39  61 CALM      30.06R
HARTFORD       SUNNY     51  38  60 S5        30.07R
DANBURY        SUNNY     50  38  63 SW6       30.08R
WTRBRY/OXFORD  SUNNY     48  37  66 NW5       30.08R
BRIDGEPORT     SUNNY     52  44  74 SW6       30.08R
MERIDEN        SUNNY     51  39  63 S5        30.08R
NEW HAVEN      SUNNY     50  42  74 SW5       30.08R
CHESTER        FAIR      52  39  62 W7        30.07R
GROTON         SUNNY     50  44  80 SW8       30.08R
WILLIMANTIC    MOSUNNY   46  40  79 CALM      30.07R

 IN RI

CITY           SKY/WX    TMP DP  RH WIND       PRES   REMARKS
PROVIDENCE     PTSUNNY   52  36  54 SW5       30.07R
BLOCK ISLAND   MOSUNNY   50  39  66 W9        30.09R
WESTERLY       PTSUNNY   49  42  77 SW6       30.09R

 IN MA

CITY           SKY/WX    TMP DP  RH WIND       PRES   REMARKS
BOSTON         PTSUNNY   53  40  61 W5        30.06R
WORCESTER      PTSUNNY   52  38  58 W8        30.05R
WESTFIELD        N/A     51  39  63 CALM      30.06R
PROVINCETOWN   SUNNY     48  45  87 S10       30.08R
NANTUCKET      SUNNY     47  43  86 S6        30.11R
$$

ANZ330-335-338-340-345-350-353-355-031300-
COASTAL MARINE OBSERVATIONS


STATION/POSITION TIME  SKY/WX   TEMP    WIND        PRES    VSBY  WAVE
                                AIR SEA DIR/SP/G                  HT/PER
                 (UTC)          (F)     (DEG/KT/KT) (MB)    (MI)  (FT/S)
NY HARB ENTRANCE 1150            50 50  220/  4/  4 1018.8          5/10
4S FIRE IS       1103               47                N/A           4/10
20S FIRE ISLAND  1150            47 46  170/  4/  6 1019.0          5/ 8
GREAT SOUTH BAY  1115            50 56  240/  6/  8   N/A
23SW MTP         1150            45 44  210/  4/  4 1019.1          4/ 8
HUDSON CANYON    NOT AVBL
EXECUTION ROCKS  NOT AVBL
WESTERN LI SOUND NOT AVBL
CENTRAL LI SOUND NOT AVBL
EASTERN LI SOUND 1100            47     220/  6/  6   N/A
ROBBINS REEF     1100            49     260/  5/  5 1017.5
$$


>>>>>>>>>>>>>>>>>>>>>>>>>>>> KEY <<<<<<<<<<<<<<<<<<<<<<<<<<<
>                                                          <
>     SKY/WX - SKY CONDITION/PRESENT WEATHER               <
>     TMP    - TEMPERATURE IN FAHRENHEIT                   <
>     DP     - DEWPOINT IN FAHRENHEIT                      <
>     RH     - RELATIVE HUMIDITY IN PERCENT                <
>     WIND   - DIRECTION AND SPEED IN MPH                  <
>     PRES   - MEAN SEA LEVEL PRESSURE IN INCHES OF HG     <
>     WCI    - WIND CHILL INDEX                            <
>     VSB    - VISIBILITY IN MILES                         <
>     HX     - HEAT INDEX                                  <
>     TC     - TEMPERATURE IN CELSIUS                      <
>     VRB    - VARIABLE WIND DIRECTION                     <
>                                                          <
>>>>>>>>>>>>>>>>>>>>>>>>>>>> KEY <<<<<<<<<<<<<<<<<<<<<<<<<<<




USA.gov is the U.S. government's official web portal to all federal, state and local government web resources and services.